Weather observations for the past three days for
Harbor Springs, Harbor Springs Airport
Imperial (Metric)
Date Time (edt) Wind (mph) Vis. (mi.) Weather Sky Cond. Temperature (ºF) Relative Humidity Wind Chill (°F) Heat Index (°F) Pressure Precipitation (in)
Air Dwpt 6 hour altimeter (in) sea level (mb) 1 hr 3 hr 6 hr
Max. Min.
12 12:35 SW 5 10.00 Fair CLR 76.3 60.3 58% 78 30.12 0.0
12 12:15 SW 5 10.00 Fair CLR 74.3 63.7 70% 30.13 0.0
12 11:55 SW 5 10.00 Fair CLR 73.4 63.5 71% 30.13 0.0
12 11:35 S 3 10.00 Fair CLR 72.5 64.2 75% 30.13 0.0
12 11:15 Calm 10.00 Fair CLR 69.4 64.4 84% 30.13 0.0
12 10:55 Calm 10.00 Fair CLR 68 64.2 88% 30.13 0.0
12 10:35 Calm 10.00 Partly Cloudy SCT004 67.6 64 88% 30.13 0.0
12 10:15 Calm 10.00 Partly Cloudy SCT004 67.1 64.2 91% 30.13 0.0
12 09:55 Calm 10.00 Partly Cloudy SCT004 66.2 63.5 91% 30.13 0.0
12 09:35 Calm 7.00 Mostly Cloudy BKN002 65.5 63.3 93% 30.13 0.0
12 09:15 Calm 1.50 Fog/Mist OVC002 64.9 63.3 95% 30.13 0.0
12 08:55 Calm 0.50 Fog OVC002 64.4 63 95% 30.14 0.0
12 08:35 Calm 0.50 Fog OVC002 64.2 62.8 95% 30.14 0.0
12 08:15 Calm 0.75 Fog/Mist OVC002 64 62.6 95% 30.13 0.0
12 07:55 Calm 2.50 Fog/Mist OVC002 64.4 62.8 95% 30.13 0.0
12 07:35 Calm 1.00 Fog/Mist OVC002 64.6 63.1 95% 30.12 0.0
12 07:15 Calm 1.75 Fog/Mist OVC002 64.8 63.3 95% 30.12 0.0
12 06:55 Calm 3.00 Fog/Mist OVC002 64.4 63 95% 30.12 0.0
12 06:35 Calm 3.00 Fog/Mist OVC002 65.3 63.9 95% 30.12 0.0
12 06:15 Calm 0.75 Fog/Mist OVC002 65.3 63.9 95% 30.11 0.0
12 05:55 Calm 0.15 Fog OVC002 65.3 63.9 95% 30.11 0.0
12 05:35 Calm 0.15 Fog OVC002 65.3 63.7 95% 30.11 0.0
12 05:15 Calm 0.15 Fog OVC002 65.3 63.7 95% 30.11 0.0
12 04:55 Calm 0.25 Fog OVC002 65.7 64.4 96% 30.1 0.0
12 04:35 Calm 0.15 Fog OVC002 65.7 64.2 95% 30.1 0.0
12 04:15 Calm 0.15 Fog OVC002 65.8 64.4 95% 30.09 0.0
12 03:55 Calm 0.25 Fog OVC002 65.8 64.4 95% 30.09 0.0
12 03:35 Calm 0.75 Fog/Mist OVC002 65.3 63.9 95% 30.09 0.0
12 03:15 Calm 10.00 Overcast OVC002 64.6 62.8 94% 30.09 0.0
12 02:55 Calm 5.00 Fog/Mist BKN004 63.9 62.4 95% 30.09 0.0
12 02:35 Calm 10.00 Fair CLR 63.1 61.7 95% 30.09 0.0
12 02:15 Calm 10.00 Fair CLR 62.8 60.8 93% 30.1 0.0
12 01:55 Calm 10.00 Partly Cloudy SCT044 63.7 62.1 95% 30.09 0.0
12 01:35 Calm 10.00 Fair CLR 63.9 61.7 93% 30.09 0.0
12 01:15 Calm 10.00 Fair CLR 64.4 62.6 94% 30.1 0.0
12 00:55 Calm 10.00 Partly Cloudy SCT047 SCT055 65.3 63 92% 30.1 0.0
12 00:35 Calm 10.00 Mostly Cloudy BKN045 BKN055 65.8 63.3 92% 30.1 0.0
12 00:15 N 3 10.00 Partly Cloudy SCT043 65.3 63.1 93% 30.1 0.0
11 23:55 Calm 10.00 Partly Cloudy SCT048 64.9 63 93% 30.1 0.0
11 23:35 Calm 10.00 Partly Cloudy SCT048 65.3 63.3 93% 30.09 0.0
11 23:15 Calm 10.00 Partly Cloudy SCT030 65.8 63.9 93% 30.09 0.0
11 22:55 Calm 10.00 Fair CLR 66 64 93% 30.09 0.0
11 22:35 Calm 7.00 Fair CLR 66.4 64.8 95% 30.09 0.0
11 22:15 Calm 7.00 Fair CLR 66.9 65.1 94% 30.09 0.0
11 21:55 Calm 10.00 Fair CLR 67.5 65.5 93% 30.09 0.0
11 21:35 Calm 10.00 Fair CLR 67.8 65.7 93% 30.09 0.0
11 21:15 Calm 10.00 Fair CLR 68 65.7 92% 30.09 0.0
11 20:55 Calm 10.00 Fair CLR 68.5 65.7 91% 30.09 0.0
11 20:35 Calm 10.00 Fair CLR 68.9 65.7 89% 30.09 0.0
11 20:15 SW 3 10.00 Fair CLR 69.6 65.7 87% 30.09 0.0
11 19:55 SW 3 10.00 Fair CLR 69.8 65.3 86% 30.08 0.0
11 19:35 SW 3 10.00 Fair CLR 70.7 65.3 83% 30.08 0.0
11 19:15 SW 5 10.00 Fair CLR 71.1 65.3 82% 30.08 0.0
11 18:55 SW 5 10.00 Fair CLR 70.3 65.3 84% 30.08 0.0
11 18:35 SW 6 10.00 Fair CLR 71.8 65.3 80% 30.08 0.0
11 18:15 SW 6 10.00 Fair CLR 71.6 65.3 81% 30.08 0.0
11 17:55 SW 6 10.00 Fair CLR 72.9 65.8 79% 30.08 0.0
11 17:35 SW 7 10.00 Fair CLR 72 65.1 79% 30.08 0.0
11 17:15 SW 3 10.00 Fair CLR 71.8 65.7 81% 30.08 0.0
11 16:55 SW 5 10.00 Fair CLR 71.8 64.9 79% 30.08 0.0
11 16:35 SW 7 10.00 Fair CLR 73.9 64.9 74% 30.08 0.0
11 16:15 SW 7 10.00 Fair CLR 74.7 64.6 71% 30.08 0.0
11 15:55 SW 5 10.00 Fair CLR 73 64.6 75% 30.08 0.0
11 15:35 SW 5 10.00 Fair CLR 75.9 63.5 66% 78 30.08 0.0
11 15:15 SW 6 10.00 Fair CLR 74.5 64.6 71% 30.08 0.0
11 14:55 SW 6 10.00 Fair CLR 75.6 63.5 66% 77 30.08 0.0
11 14:35 SW 9 10.00 Fair CLR 74.3 63.5 69% 30.08 0.0
11 14:15 SW 9 10.00 Fair CLR 74.3 64 70% 30.08 0.0
11 13:55 SW 9 10.00 Fair CLR 73.4 63.7 72% 30.09 0.0
11 13:35 W 7 10.00 Fair CLR 74.3 63.3 69% 30.09 0.0
11 13:15 SW 6 10.00 Fair CLR 73.4 63.9 72% 30.09 0.0
11 12:55 SW 7 10.00 Fair CLR 74.1 63.7 70% 30.09 0.0
11 12:35 SW 7 10.00 Fair CLR 73.8 63.9 71% 30.09 0.0
11 12:15 SW 6 10.00 Fair CLR 74.3 62.8 67% 30.09 0.0
11 11:55 SW 6 10.00 Fair CLR 76.1 61.2 60% 78 30.09 0.0
11 11:35 W 3 10.00 Fair CLR 75.9 60.1 58% 78 30.08 0.0
11 11:15 W 3 10.00 Fair CLR 75.6 58.6 56% 78 30.08 0.0
11 10:55 SW 3 10.00 Fair CLR 73.8 62.1 67% 30.08 0.0
11 10:35 Calm 10.00 Fair CLR 72.3 61.7 69% 30.08 0.0
11 10:15 NE 3 10.00 Fair CLR 71.6 61.9 72% 30.08 0.0
11 09:55 Calm 10.00 Fair CLR 70.5 62.2 75% 30.08 0.0
11 09:35 SE 3 10.00 Partly Cloudy SCT011 69.4 61.5 76% 30.08 0.0
11 09:15 Calm 10.00 Partly Cloudy SCT009 68.7 61.7 78% 30.08 0.0
11 08:55 Calm 10.00 Partly Cloudy SCT009 68 61.9 81% 30.08 0.0
11 08:35 Calm 10.00 Fair CLR 67.1 62.2 84% 30.07 0.0
11 08:15 Calm 10.00 Fair CLR 65.7 61.9 88% 30.06 0.0
11 07:55 Calm 10.00 Fair CLR 64.4 60.8 88% 30.06 0.0
11 07:35 Calm 10.00 Fair CLR 63 60.4 92% 30.06 0.0
11 07:15 Calm 10.00 Fair CLR 61.9 59.7 93% 30.05 0.0
11 06:55 Calm 10.00 Fair CLR 61 59.2 94% 30.04 0.0
11 06:35 Calm 10.00 Fair CLR 60.8 59 94% 30.04 0.0
11 06:15 Calm 10.00 Fair CLR 61 59.4 94% 30.04 0.0
11 05:55 Calm 10.00 Fair CLR 60.3 58.6 94% 30.04 0.0
11 05:35 Calm 10.00 Fair CLR 61.7 59.5 93% 30.03 0.0
11 05:15 Calm 10.00 Fair CLR 61.7 59.9 94% 30.02 0.0
11 04:55 Calm 7.00 Fair CLR 61.9 60.1 94% 30.01 0.0
11 04:35 Calm 10.00 Fair CLR 61.7 59.9 94% 30.01 0.0
11 04:15 Calm 10.00 Fair CLR 61.9 60.3 94% 30 0.0
11 03:55 Calm 5.00 Fog/Mist CLR 61.3 59.9 95% 30.01 0.0
11 03:35 Calm 10.00 Fair CLR 61.5 59.9 94% 30 0.0
11 03:15 Calm 10.00 Fair CLR 62.1 60.4 94% 29.99 0.0
11 02:55 Calm 10.00 Fair CLR 62.8 60.8 93% 29.99 0.0
11 02:35 Calm 10.00 Fair CLR 63.7 60.8 90% 29.99 0.0
11 02:15 Calm 10.00 Fair CLR 63.9 61.2 91% 29.99 0.0
11 01:55 Calm 10.00 Fair CLR 64.8 61.3 89% 29.99 0.0
11 01:35 Calm 10.00 Fair CLR 64 61.2 90% 29.98 0.0
11 01:15 N 3 10.00 Fair CLR 64.8 61.2 88% 29.98 0.0
11 00:55 Calm 10.00 Fair CLR 63.7 61 91% 29.97 0.0
11 00:35 Calm 10.00 Fair CLR 64.6 61.2 89% 29.97 0.0
11 00:15 Calm 10.00 Fair CLR 64.4 61 89% 29.96 0.0
10 23:55 Calm 10.00 Fair CLR 63 60.3 91% 29.97 0.0
10 23:35 Calm 10.00 Fair CLR 63.3 59.5 88% 29.96 0.0
10 23:15 Calm 10.00 Fair CLR 64.6 60.1 85% 29.96 0.0
10 22:55 Calm 10.00 Fair CLR 65.1 60.1 84% 29.96 0.0
10 22:35 Calm 10.00 Fair CLR 66.2 60.1 81% 29.96 0.0
10 22:15 Calm 10.00 Partly Cloudy SCT110 65.8 59.9 81% 29.95 0.0
10 21:55 Calm 10.00 Fair CLR 67.3 59 75% 29.95 0.0
10 21:35 E 5 10.00 Partly Cloudy SCT110 68.4 58.6 71% 29.94 0.0
10 21:15 E 6 10.00 Overcast SCT041 SCT055 OVC110 72 60.6 68% 29.94 0.0
10 20:55 N 3 10.00 Mostly Cloudy SCT075 SCT080 BKN100 74.3 60.8 63% 29.93 0.0
10 20:35 NW 3 10.00 Mostly Cloudy BKN090 75 60.8 61% 77 29.92 0.0
10 20:15 W 3 10.00 Partly Cloudy SCT080 77 62.4 61% 79 29.91 0.0
10 19:55 Calm 10.00 Fair CLR 77.7 61.3 57% 79 29.91 0.0
10 19:35 NW 3 10.00 Fair CLR 77 60.3 56% 79 29.91 0.0
10 19:15 N 5 10.00 Fair CLR 78.4 61.2 55% 80 29.9 0.0
10 18:55 NW 3 10.00 Fair CLR 77 61.7 59% 79 29.9 0.0
10 18:35 N 3 10.00 Fair CLR 76.1 62.1 62% 78 29.9 0.0
10 18:15 NW 5 10.00 Partly Cloudy SCT100 76.1 62.4 63% 78 29.89 0.0
10 17:55 N 6 10.00 Partly Cloudy SCT120 75.7 62.8 64% 78 29.89 0.0
10 17:35 N 6 10.00 Mostly Cloudy SCT042 SCT048 BKN120 74.7 61.5 64% 29.89 0.0
10 17:15 N 7 10.00 Overcast SCT047 SCT075 OVC110 78.8 58.3 49% 80 29.88 0.0
10 16:55 NE 8 10.00 Overcast SCT044 BKN060 OVC120 81.3 59.2 47% 82 29.87 0.0
10 16:35 N 5 10.00 Mostly Cloudy BKN046 BKN050 79 58.5 50% 80 29.87 0.0
10 16:15 NE 8 G 18 10.00 Partly Cloudy SCT046 81.9 58.3 45% 82 29.86 0.0
10 15:55 NE 13 G 18 10.00 Partly Cloudy SCT037 SCT044 SCT120 81 58.6 47% 81 29.86 0.0
10 15:35 NE 8 G 18 10.00 Mostly Cloudy SCT035 SCT044 BKN120 80.6 61.2 52% 82 29.86 0.0
10 15:15 N 13 G 17 10.00 Mostly Cloudy SCT050 SCT085 BKN120 78.8 61.9 56% 80 29.86 0.0
10 14:55 NE 10 10.00 Overcast SCT032 BKN050 OVC100 78.3 61.9 57% 80 29.87 0.0
10 14:35 E 9 10.00 Mostly Cloudy BKN029 BKN034 BKN049 79 61.9 56% 80 29.86 0.0
10 14:15 N 8 10.00 Mostly Cloudy SCT023 SCT027 BKN034 79.5 62.8 57% 81 29.86 0.0
10 13:55 NE 8 10.00 Partly Cloudy SCT021 SCT026 SCT100 77 63.1 62% 79 29.86 0.0
10 13:35 NE 7 10.00 Overcast OVC021 74.1 64.4 72% 29.86 0.0
10 13:15 E 6 10.00 Overcast OVC021 74.5 63.7 69% 29.86 0.0
10 12:55 E 8 10.00 Overcast OVC023 75.4 63 65% 77 29.86 0.0
10 12:35 E 9 10.00 Mostly Cloudy BKN021 76.8 63.9 64% 79 29.86 0.0
10 12:15 E 9 10.00 Partly Cloudy SCT017 74.3 63 68% 29.86 0.0
10 11:55 E 8 10.00 Overcast OVC017 74.5 63 67% 29.86 0.0
10 11:35 NE 8 10.00 Overcast OVC015 73.4 63.1 70% 29.86 0.0
10 11:15 NE 8 10.00 Mostly Cloudy BKN015 71.4 62.6 74% 29.85 0.0
10 10:55 NE 9 10.00 Fair CLR 71.4 62.6 74% 29.84 0.0
10 10:35 NE 5 10.00 Partly Cloudy SCT017 SCT030 SCT042 70 62.1 76% 29.84 0.0
10 10:15 N 6 10.00 Overcast BKN017 BKN046 OVC050 69.1 61.7 77% 29.84 0.0
10 09:55 E 3 10.00 Mostly Cloudy SCT017 BKN050 BKN060 68.9 61.5 77% 29.85 0.0
10 09:35 NE 3 10.00 Mostly Cloudy SCT049 BKN060 BKN065 68.2 61.3 79% 29.84 0.0
10 09:15 N 6 10.00 Overcast BKN049 OVC055 66.6 60.6 81% 29.84 0.0
10 08:55 N 5 10.00 Partly Cloudy SCT049 66.4 59.9 80% 29.84 0.0
10 08:35 Calm 10.00 Fair CLR 66 59.7 80% 29.83 0.0
10 08:15 N 6 10.00 Fair CLR 66.2 59 78% 29.83 0.0
10 07:55 E 5 10.00 Fair CLR 66 58.6 77% 29.82 0.0
10 07:35 N 8 10.00 Fair CLR 65.3 59 80% 29.82 0.0
10 07:15 NE 5 10.00 Fair CLR 65.5 58.8 79% 29.81 0.0
10 06:55 N 9 10.00 Fair CLR 64.9 59.2 82% 29.82 0.0
10 06:35 N 6 10.00 Fair CLR 64.6 59.4 83% 29.82 0.0
10 06:15 N 5 10.00 Fair CLR 64.8 59.2 82% 29.83 0.0
10 05:55 Calm 10.00 Fair CLR 64.4 59.4 84% 29.83 0.0
10 05:35 N 6 10.00 Fair CLR 64.4 59.5 84% 29.83 0.0
10 05:15 N 3 10.00 Fair CLR 64.2 59.9 86% 29.82 0.0
10 04:55 NE 3 10.00 Fair CLR 64.4 60.3 87% 29.83 0.0
10 04:35 E 5 10.00 Fair CLR 65.3 60.4 84% 29.84 0.0
10 04:15 E 5 10.00 Fair CLR 65.3 60.8 85% 29.84 0.0
10 03:55 E 5 10.00 Fair CLR 65.3 60.8 85% 29.85 0.0
10 03:35 E 5 10.00 Fair CLR 65.5 60.8 85% 29.86 0.0
10 03:15 Calm 10.00 Fair CLR 65.1 60.8 86% 29.86 0.0
10 02:55 Calm 10.00 Fair CLR 65.3 61 86% 29.87 0.0
10 02:35 Calm 10.00 Fair CLR 64.9 61 87% 29.87 0.0
10 02:15 Calm 10.00 Fair CLR 64.6 61.2 89% 29.88 0.0
10 01:55 Calm 10.00 Fair CLR 64.6 61.3 89% 29.88 0.0
10 01:35 Calm 10.00 Fair CLR 64.4 61.5 90% 29.89 0.0
10 01:15 Calm 10.00 Fair CLR 65.3 61.7 88% 29.9 0.0
10 00:55 Calm 10.00 Fair CLR 65.1 61.7 89% 29.9 0.0
10 00:35 Calm 10.00 Fair CLR 65.7 61.9 88% 29.91 0.0
10 00:15 Calm 10.00 Fair CLR 65.7 62.6 90% 29.91 0.0
09 23:55 Calm 10.00 Fair CLR 65.5 63.3 93% 29.9 0.0
09 23:35 Calm 10.00 Fair CLR 66.2 63.5 91% 29.9 0.0
09 23:15 NE 3 10.00 Fair CLR 66.4 63.5 91% 29.9 0.0
09 22:55 Calm 10.00 Fair CLR 66.6 62.8 88% 29.9 0.0
09 22:35 Calm 10.00 Fair CLR 66.6 64.2 92% 29.9 0.0
09 22:15 Calm 10.00 Fair CLR 66.4 63.7 91% 29.9 0.0
09 21:55 Calm 10.00 Fair CLR 66.2 64.2 93% 29.9 0.0
09 21:35 Calm 10.00 Fair CLR 66.9 64.4 92% 29.9 0.0
09 21:15 Calm 10.00 Fair CLR 67.6 64.4 89% 29.9 0.0
09 20:55 Calm 10.00 Fair CLR 68.2 64.4 88% 29.9 0.0
09 20:35 S 3 10.00 Fair CLR 69.3 64.8 86% 29.9 0.0
09 20:15 Calm 10.00 Fair CLR 72.1 64.4 77% 29.91 0.0
09 19:55 Calm 10.00 Fair CLR 72.1 63.7 75% 29.91 0.0
09 19:35 Calm 10.00 Fair CLR 70.9 64.6 81% 29.91 0.0
09 19:15 SW 3 10.00 Fair CLR 71.6 63.9 77% 29.9 0.0
09 18:55 SW 3 10.00 Fair CLR 71.2 63.9 78% 29.9 0.0
09 18:35 SW 5 10.00 Fair CLR 73.6 62.8 69% 29.9 0.0
09 18:15 S 6 10.00 Fair CLR 72 64 76% 29.9 0.0
09 17:55 S 6 10.00 Fair CLR 71.8 64.4 78% 29.91 0.0
09 17:35 SW 7 10.00 Fair CLR 74.3 63 68% 29.91 0.0
09 17:15 SW 6 10.00 Fair CLR 75.2 63.1 66% 77 29.91 0.0
09 16:55 SW 6 10.00 Fair CLR 75.2 61.9 63% 77 29.91 0.0
09 16:35 W 6 10.00 Fair CLR 75.2 61.5 63% 77 29.91 0.0
09 16:15 W 7 10.00 Fair CLR 73.4 63.7 72% 29.92 0.0
09 15:55 S 7 10.00 Fair CLR 71.8 63.1 74% 29.92 0.0
09 15:35 SW 6 10.00 Fair CLR 75.2 64 68% 77 29.92 0.0
09 15:15 SW 6 10.00 Fair CLR 75.2 63.1 66% 77 29.93 0.0
09 14:55 SW 5 10.00 Fair CLR 72.9 64 74% 29.93 0.0
09 14:35 SW 7 10.00 Fair CLR 71.2 64.2 79% 29.93 0.0
09 14:15 SW 8 10.00 Fair CLR 75.2 62.4 65% 77 29.92 0.0
09 13:55 SW 6 10.00 Fair CLR 75.4 62.8 65% 77 29.92 0.0
09 13:35 W 6 10.00 Fair CLR 75.2 62.8 65% 77 29.93 0.0
09 13:15 SW 7 10.00 Fair CLR 72.3 64.2 76% 29.93 0.0
09 12:55 SW 6 10.00 Fair CLR 72.7 63.7 73% 29.93 0.0
Date Time (edt) Wind (mph) Vis. (mi.) Weather Sky Cond. Air Dwpt Max. Min. Relative Humidity Wind Chill (°F) Heat Index (°F) altimeter (in) sea level (mb) 1 hr 3 hr 6 hr
6 hour
Temperature (ºF) Pressure Precipitation (in)